Vorticity
nan nan nan nan nan nan nan nan nan nan nan nan nan nan nan nan nan nan nan nan nan nan nan nan nan nan nan nan nan nan nan nan nan nan nan nan nan nan nan nan nan nan nan nan nan nan nan
nan 6 6 7 6 6 7 8 8 8 8 9 7 10 9 9 8 9 8 7 7 6 5 6 10 7 7 5 10 8 2 11 26 19 6 3 6 8 9 10 4 11 14 16 11 7 nan
nan 5 6 7 7 7 7 8 7 7 9 8 9 9 8 8 8 8 8 7 6 5 5 5 8 9 7 8 7 7 5 21 26 11 3 6 7 8 7 9 10 8 9 9 9 9 nan
nan 6 6 6 7 7 8 8 7 9 8 8 8 7 10 9 8 8 7 6 7 11 9 8 9 10 6 10 7 2 8 21 16 8 3 7 6 6 7 8 11 8 6 10 13 3 nan
nan 5 6 6 7 7 8 8 8 7 9 9 8 8 8 10 8 6 7 9 8 13 15 10 8 6 7 6 4 6 17 19 7 9 13 6 6 5 8 8 5 10 8 8 16 7 nan
nan 6 6 6 6 7 7 8 7 8 8 9 9 8 8 9 8 6 10 17 15 9 13 10 5 6 9 8 11 11 8 9 15 13 11 4 3 6 11 16 7 5 10 11 9 8 nan
nan 6 6 6 6 6 6 6 7 8 8 9 8 9 9 7 9 9 15 14 11 9 9 9 8 7 4 7 11 9 8 10 13 11 12 7 8 8 4 9 10 8 10 9 9 10 nan
nan 6 6 6 6 6 5 6 7 7 7 9 10 10 10 9 9 16 14 8 9 7 7 10 10 9 9 9 8 6 10 11 15 12 5 10 9 10 8 8 11 7 7 5 7 14 nan
nan 6 6 6 6 6 6 6 7 7 8 8 9 11 12 12 13 15 10 7 8 9 10 9 9 10 9 10 12 9 8 8 16 15 8 3 7 9 5 7 8 9 9 9 8 8 nan
nan 6 6 6 6 6 6 6 7 7 9 8 9 13 16 14 13 10 8 10 9 10 8 8 10 8 8 9 10 10 8 9 15 14 5 2 12 10 6 6 7 9 10 7 8 10 nan
nan 6 6 6 5 5 7 6 7 8 9 9 9 16 23 16 7 8 11 9 6 8 6 8 10 8 10 12 6 5 11 12 9 15 8 9 13 6 6 8 7 8 12 10 8 7 nan
nan 6 7 6 6 6 6 7 7 9 9 9 10 19 21 11 9 11 10 6 6 10 7 7 10 10 12 10 10 8 10 12 8 5 9 12 7 7 9 11 11 9 5 8 11 8 nan
nan 6 6 7 7 7 7 7 8 8 9 9 15 29 18 6 10 12 6 5 11 7 8 9 10 11 9 7 9 11 11 9 12 6 2 6 10 9 9 8 9 10 5 6 7 11 nan
nan 6 6 7 7 7 8 8 8 8 9 12 25 25 11 6 10 8 6 8 10 9 9 10 11 10 6 8 7 10 9 7 8 8 12 12 9 5 8 11 9 8 9 11 11 8 nan
nan 6 6 6 7 7 8 8 7 8 11 20 23 12 11 12 10 5 8 11 11 8 8 9 7 7 8 11 8 6 10 11 8 7 8 6 9 7 10 10 12 11 9 7 7 8 nan
nan 5 6 6 7 7 7 7 7 9 12 24 21 9 7 12 9 6 9 7 9 7 9 11 10 8 10 9 7 9 9 8 9 9 9 9 9 8 9 7 7 10 10 6 8 12 nan
nan 5 5 6 7 7 7 7 8 9 16 24 15 10 9 8 9 11 9 9 8 11 9 7 10 10 11 9 9 13 7 4 11 10 9 9 10 13 8 10 6 4 7 8 10 9 nan
nan 5 5 6 7 7 7 8 9 9 21 23 11 8 10 11 11 9 9 10 8 11 8 8 9 12 12 9 9 11 10 11 12 8 8 7 7 12 7 8 13 10 8 7 7 8 nan
nan 5 6 6 7 7 7 8 8 12 25 20 10 9 9 8 9 9 10 10 10 9 8 10 9 10 10 10 10 11 9 13 14 9 8 9 6 8 7 9 16 15 9 3 4 12 nan
nan 4 6 6 7 7 7 7 7 15 25 20 10 10 10 9 8 8 11 11 10 9 10 9 9 9 9 8 11 13 9 12 11 12 10 7 9 11 6 7 12 14 13 8 -0 0 nan
nan 5 6 6 6 6 7 7 8 17 25 15 10 11 9 9 7 9 13 12 10 9 11 9 11 10 9 7 8 9 11 8 9 10 11 11 9 9 9 11 9 10 15 14 6 -1 nan
nan 5 6 6 6 7 8 8 8 22 25 12 9 7 11 10 8 9 11 12 12 11 10 10 8 10 12 11 11 7 7 9 8 9 9 10 12 7 7 13 11 9 12 15 15 12 nan
nan 5 6 5 6 7 8 7 7 18 24 12 8 11 11 8 13 12 8 8 10 12 10 10 10 10 12 8 10 14 13 14 13 8 7 12 10 8 8 8 11 17 21 11 9 14 nan
nan 5 5 5 5 6 5 7 9 14 20 14 10 11 10 11 9 7 8 10 7 12 10 8 13 10 8 12 12 10 10 14 11 8 11 9 8 10 10 8 12 15 15 18 11 9 nan
nan 5 4 6 6 6 7 8 8 12 16 14 12 10 10 11 7 7 9 12 11 12 11 10 10 9 11 13 11 7 6 10 12 11 9 8 7 10 12 6 5 12 14 15 12 12 nan
nan 5 4 6 5 5 7 9 7 8 14 14 10 11 12 11 8 9 10 10 10 9 10 11 8 11 13 13 12 11 9 8 10 8 11 9 10 11 7 9 11 6 7 12 8 9 nan
nan 6 5 6 6 5 8 8 7 8 15 15 9 10 10 9 9 10 12 9 8 12 11 6 7 15 13 11 11 10 12 11 12 11 9 9 11 9 7 7 10 12 11 11 8 9 nan
nan 6 7 7 6 6 7 7 8 11 16 15 11 9 9 9 11 8 6 8 10 11 10 11 16 8 10 12 11 11 11 10 9 13 14 9 8 9 11 7 11 12 12 12 5 8 nan
nan nan nan nan nan nan nan nan nan nan nan nan nan nan nan nan nan nan nan nan nan nan nan nan nan nan nan nan nan nan nan nan nan nan nan nan nan nan nan nan nan nan nan nan nan nan nan
CAPE
5 9 12 11 14 13 15 26 14 29 42 49 47 17 12 40 23 11 25 83 118 219 195 153 162 208 8 0 0 0 15 0 0 18 32 0 0 20 40 39 26 2 0 3 5 0 0
4 9 9 10 8 14 19 22 28 31 40 42 43 18 18 12 7 13 37 66 111 207 189 252 176 157 20 1 0 4 4 0 0 8 0 19 0 16 36 36 93 9 31 54 51 3 0
4 7 6 9 11 12 15 17 21 26 33 41 43 26 18 3 0 5 1 43 100 196 219 193 216 43 9 3 1 23 0 0 2 0 0 23 0 55 3 3 0 5 6 1 6 19 4
5 7 8 9 7 12 14 15 16 10 20 24 37 33 6 3 0 0 0 0 45 152 199 261 244 22 0 3 0 10 1 33 11 30 62 75 0 1 1 0 0 0 0 0 0 1 0
3 5 6 9 11 16 17 9 14 18 20 8 23 24 27 3 0 0 1 43 29 138 100 165 2 0 0 7 1 0 1 51 97 137 97 114 37 24 0 0 0 0 0 0 0 0 0
1 3 9 11 6 9 8 16 10 14 18 20 13 16 19 6 0 0 0 7 41 11 11 48 8 0 0 0 4 31 22 11 65 70 66 71 43 0 0 0 0 0 0 0 0 0 0
1 2 6 4 7 10 11 15 13 14 13 14 12 11 12 12 2 0 0 0 0 0 0 0 0 0 0 0 8 36 3 3 96 99 65 32 7 0 0 0 0 0 0 0 0 0 0
1 1 4 7 4 5 10 4 16 16 19 7 9 4 9 7 8 0 0 0 0 0 0 0 0 0 0 0 2 0 0 2 80 73 32 23 8 0 0 0 0 0 0 0 0 0 0
0 2 3 7 6 6 3 6 11 16 16 18 10 6 12 3 7 0 0 0 0 0 0 0 0 3 21 36 23 0 0 35 13 61 7 5 0 2 21 10 0 0 0 0 0 0 0
0 1 3 3 1 3 6 11 11 11 12 15 17 6 12 1 0 0 0 0 0 0 0 1 0 0 11 32 10 1 14 24 26 0 17 25 0 8 27 12 0 0 0 0 0 0 0
0 1 2 3 6 5 5 10 17 14 16 13 16 6 8 0 0 0 0 0 0 0 0 0 0 0 0 1 4 0 33 39 7 19 6 3 0 10 0 3 0 0 0 0 0 0 0
0 0 2 3 3 8 7 4 12 9 11 16 10 6 1 0 0 0 0 0 0 0 0 0 1 0 0 0 17 26 31 15 1 0 0 0 0 0 0 0 0 0 0 0 0 0 0
0 0 2 4 4 5 9 9 7 9 8 5 6 4 1 0 0 0 0 0 0 0 0 0 4 1 0 1 4 4 16 10 4 0 1 0 0 0 0 6 0 0 0 1 1 3 0
0 0 1 3 3 5 5 9 10 8 6 7 3 0 0 0 0 0 0 0 0 0 0 0 8 10 16 9 10 0 0 3 0 0 0 0 5 0 0 0 0 0 0 0 0 0 0
0 0 0 2 3 2 5 9 9 7 12 14 0 0 0 0 0 0 0 0 0 0 0 0 0 3 6 9 0 0 0 0 0 0 0 0 0 0 0 0 0 1 1 0 0 0 0
0 0 0 1 1 1 6 8 6 8 7 1 0 0 0 0 0 0 0 0 0 0 0 0 0 0 0 1 1 0 0 0 0 0 0 0 0 0 0 0 0 0 0 0 0 0 0
0 0 0 0 0 1 4 6 6 8 1 0 0 0 0 0 0 0 0 0 0 0 0 0 0 0 0 0 0 0 0 0 0 0 0 0 0 4 5 4 1 2 10 0 0 0 0
0 0 0 0 0 0 1 4 7 3 1 0 0 0 0 0 2 0 0 0 0 0 0 0 0 0 0 0 0 0 0 0 0 0 0 0 0 1 1 1 0 0 1 0 0 0 0
0 0 0 0 0 0 0 4 4 1 0 0 0 0 0 0 0 0 0 0 0 0 0 0 0 0 0 0 0 0 0 0 0 0 0 0 0 0 0 0 1 11 1 5 0 0 0
0 0 0 0 0 0 0 2 2 0 0 0 0 0 3 4 0 0 0 0 0 0 0 0 0 0 0 0 0 0 0 0 0 0 0 0 0 0 0 0 0 4 1 6 1 0 0
0 0 0 0 0 0 0 0 0 0 0 0 0 0 0 0 0 0 0 0 0 0 0 0 0 0 0 0 0 0 0 0 0 0 0 0 0 0 0 0 0 0 0 1 3 0 0
0 0 0 0 0 0 1 0 0 0 0 0 0 0 0 0 0 0 0 0 0 0 0 0 0 0 0 0 0 0 0 0 0 0 0 0 0 0 0 0 0 0 0 0 0 0 0
0 0 0 0 0 2 1 1 1 0 0 0 0 0 0 0 0 0 0 0 0 0 0 0 0 0 0 0 0 0 0 0 0 0 0 0 0 0 0 0 0 0 0 0 0 0 0
0 0 0 0 0 0 0 3 1 0 0 0 0 0 0 0 0 0 0 0 0 0 0 0 0 0 0 0 0 0 0 0 0 0 0 0 0 0 0 0 0 0 0 0 0 0 0
0 1 0 0 0 0 0 0 0 1 0 0 0 0 0 0 0 0 0 0 0 0 0 0 2 0 0 0 0 0 0 0 0 0 0 0 0 0 0 0 0 0 0 0 0 0 0
0 0 0 0 0 0 1 0 0 0 0 0 0 0 0 0 0 0 0 0 0 0 0 0 0 0 0 0 0 0 0 0 0 0 0 0 0 0 0 0 0 0 0 0 0 0 0
0 0 2 0 0 0 0 0 3 0 1 0 0 0 0 0 0 0 0 0 0 0 0 0 0 0 0 0 0 0 0 0 0 0 3 1 1 0 0 6 0 0 0 0 0 0 0
1 1 8 0 0 0 2 0 0 0 1 0 0 0 0 0 0 0 0 0 0 0 0 0 0 1 0 0 0 0 0 0 0 0 0 0 1 2 3 7 0 0 0 0 0 0 0
1 4 13 0 0 0 0 0 1 0 0 0 3 1 0 0 0 0 0 0 0 0 0 0 1 6 6 2 0 0 0 0 0 0 0 0 0 0 0 0 0 0 0 0 0 0 0